Weather in Uktur

Russia / Khabarovsk Krai     50°20′23″N   138°29′04″E
temp.,
°C
wind,
m/s
gust,
m/s
humid.,
%
clouds,
%
prec.,
mm/h
press.,
hPa
HPBL,
m
21 january, fri
fri2101:00−27ssw1110091 0.0 10329
04:00−28s1110095 0.0 103311
07:00−29s1110095 0.0 103412
10:00−25s119895 0.0 103376
13:00−18wnw1285100 0.0 1031479
16:00−17wnw1285100 0.1 1030445
19:00−24w1110098 0.0 10339
22:00−26sw1110098 0.1 10339
22 january, sat
sat2201:00−27s1110096 0.0 103310
04:00−28s1110095 0.1 103312
07:00−28sse1110094 0.0 103310
10:00−24s119780 0.0 103386
13:00−18w1182100 0.0 1030453
16:00−16wnw118198 0.0 1029401
19:00−24w1110058 0.0 10319
22:00−26s1110080 0.0 10319
23 january, sun
sun2301:00−27s1110074 0.0 103110
04:00−28s1110073 0.0 103110
07:00−28sse1110075 0.0 103010
10:00−24s119877 0.0 102966
13:00−17wnw0183100 0.0 1026466
16:00−16nw128299 0.0 1024397
19:00−25w1110082 0.0 10279
22:00−27sw1110088 0.0 10279
24 january, mon
mon2401:00−28s1110092 0.0 102710
04:00−29s1110094 0.0 102812
07:00−30sse1110094 0.0 102815
10:00−26s119887 0.0 102785
13:00−18wsw0283100 0.0 1025509
16:00−17w1281100 0.0 1023467
19:00−25wsw1110088 0.0 10269
22:00−27s1110099 0.0 10279
25 january, tue
tue2501:00−28sse1110095 0.0 102713
04:00−29sse1110094 0.1 102713
07:00−29sse1110092 0.0 102813
10:00−25sse119878 0.0 102768
13:00−17s018486 0.0 1024343
16:00−15nne108397 0.0 1022307
19:00−24sse0010090 0.0 10249
22:00−26sse1110086 0.0 10259